{"data":{"norad_id":65281,"epoch":"2026-05-25T02:52:06.643776Z","epoch_age_seconds":58527,"freshness":"FRESH","line1":"1 65281U 25184J   26145.11952134  .00005594  00000+0  39146-3 0  9994","line2":"2 65281  97.4480 197.6648 0001924 100.2215 259.9229 15.05647058 42807","mean_motion":15.05647058,"eccentricity":0.0001924,"inclination_deg":97.448,"raan_deg":197.6648,"arg_perigee_deg":100.2215,"mean_anomaly_deg":259.9229,"bstar":0.00039146,"rev_number":4280,"period_min":95.639943793521,"perigee_km":548.18729710602,"apogee_km":550.85305958824,"semimajor_km":6927.6571783471,"source":"CELESTRAK","updated_at":"2026-05-25T13:38:20.731010Z"}}